When you browse on this site, cookies collect data to enhance your experience and personalize the content and advertising you see.
Visit our Privacy Policy to learn more. By continuing to use the site, you agree to this use of cookies and data.

Hourly Weather San Luis

Today, 13 August, Thursday

Time Temperature Precipitation Wind Pressure Humidity
00:00 +7°C° 0 mm 4 mps 696 mmHg 24%
01:00 +6°C° 0 mm 4 mps 696 mmHg 23%
02:00 +6°C° 0 mm 5 mps 696 mmHg 22%
03:00 +6°C° 0 mm 5 mps 695 mmHg 22%
04:00 +6°C° 0 mm 4 mps 695 mmHg 23%
05:00 +6°C° 0 mm 4 mps 695 mmHg 23%
06:00 +6°C° 0 mm 4 mps 695 mmHg 23%
07:00 +6°C° 0 mm 4 mps 696 mmHg 23%
08:00 +7°C° 0 mm 4 mps 696 mmHg 22%
09:00 +10°C° 0 mm 4 mps 696 mmHg 20%
10:00 +13°C° 0 mm 4 mps 697 mmHg 17%
11:00 +15°C° 0 mm 4 mps 697 mmHg 15%
12:00 +17°C° 0 mm 4 mps 697 mmHg 14%
13:00 +18°C° 0 mm 3 mps 696 mmHg 13%
14:00 +19°C° 0 mm 3 mps 695 mmHg 12%
15:00 +19°C° 0 mm 3 mps 695 mmHg 13%
16:00 +19°C° 0 mm 3 mps 694 mmHg 13%
17:00 +19°C° 0 mm 3 mps 694 mmHg 13%
18:00 +16°C° 0 mm 3 mps 693 mmHg 16%
19:00 +13°C° 0 mm 3 mps 693 mmHg 18%
20:00 +11°C° 0 mm 3 mps 692 mmHg 20%
21:00 +10°C° 0 mm 3 mps 692 mmHg 19%
22:00 +10°C° 0 mm 4 mps 692 mmHg 19%
23:00 +9°C° 0 mm 5 mps 692 mmHg 19%

Tomorrow, 14 August, Friday

Time Temperature Precipitation Wind Pressure Humidity
00:00 +9°C° 0 mm 5 mps 691 mmHg 20%
01:00 +9°C° 0 mm 5 mps 691 mmHg 22%
02:00 +9°C° 0 mm 5 mps 691 mmHg 23%
03:00 +9°C° 0 mm 5 mps 691 mmHg 26%
04:00 +8°C° 0 mm 4 mps 690 mmHg 28%
05:00 +8°C° 0 mm 4 mps 690 mmHg 30%
06:00 +9°C° 0 mm 3 mps 691 mmHg 32%
07:00 +9°C° 0 mm 2 mps 692 mmHg 33%
08:00 +9°C° 0 mm 2 mps 693 mmHg 35%
09:00 +11°C° 0 mm 3 mps 694 mmHg 31%
10:00 +12°C° 0 mm 4 mps 695 mmHg 28%
11:00 +14°C° 0 mm 6 mps 696 mmHg 25%
12:00 +14°C° 0 mm 6 mps 696 mmHg 26%
13:00 +14°C° 0 mm 7 mps 696 mmHg 27%
14:00 +15°C° 0 mm 8 mps 696 mmHg 28%
15:00 +13°C° 0 mm 8 mps 696 mmHg 26%
16:00 +14°C° 0 mm 7 mps 696 mmHg 24%
17:00 +12°C° 0 mm 7 mps 696 mmHg 22%
18:00 +11°C° 0 mm 7 mps 696 mmHg 22%
19:00 +9°C° 0 mm 6 mps 697 mmHg 22%
20:00 +8°C° 0 mm 6 mps 697 mmHg 23%
21:00 +7°C° 0 mm 5 mps 697 mmHg 23%
22:00 +6°C° 0 mm 5 mps 697 mmHg 24%
23:00 +6°C° 0 mm 5 mps 697 mmHg 25%

Day after tomorrow, 15 August, Saturday

Time Temperature Precipitation Wind Pressure Humidity
00:00 +6°C° 0 mm 4 mps 696 mmHg 26%
01:00 +6°C° 0 mm 4 mps 696 mmHg 28%
02:00 +7°C° 0 mm 3 mps 696 mmHg 29%
03:00 +5°C° 0 mm 3 mps 695 mmHg 32%
04:00 +5°C° 0 mm 3 mps 695 mmHg 35%
05:00 +6°C° 0 mm 2 mps 694 mmHg 38%
06:00 +6°C° 0 mm 2 mps 695 mmHg 38%
07:00 +7°C° 0 mm 2 mps 695 mmHg 38%
08:00 +8°C° 0 mm 2 mps 695 mmHg 38%
09:00 +10°C° 0 mm 2 mps 695 mmHg 33%
10:00 +12°C° 0 mm 3 mps 696 mmHg 29%
11:00 +16°C° 0 mm 3 mps 696 mmHg 24%
12:00 +17°C° 0 mm 4 mps 696 mmHg 23%
13:00 +17°C° 0 mm 4 mps 696 mmHg 22%
14:00 +17°C° 0 mm 5 mps 696 mmHg 21%
15:00 +16°C° 0 mm 5 mps 697 mmHg 21%
16:00 +15°C° 0 mm 6 mps 697 mmHg 21%
17:00 +14°C° 0 mm 7 mps 697 mmHg 21%
18:00 +11°C° 0 mm 7 mps 698 mmHg 22%
19:00 +9°C° 0 mm 7 mps 698 mmHg 24%
20:00 +8°C° 0 mm 6 mps 699 mmHg 25%
21:00 +7°C° 0 mm 6 mps 699 mmHg 27%
22:00 +5°C° 0 mm 6 mps 700 mmHg 30%
23:00 +4°C° 0 mm 6 mps 700 mmHg 32%

16 August, Sunday

Time Temperature Precipitation Wind Pressure Humidity
00:00 +5°C° 0 mm 5 mps 700 mmHg 33%
01:00 +4°C° 0 mm 4 mps 699 mmHg 34%
02:00 +4°C° 0 mm 3 mps 699 mmHg 35%
03:00 +4°C° 0 mm 3 mps 699 mmHg 35%
04:00 +4°C° 0 mm 3 mps 698 mmHg 35%
05:00 +4°C° 0 mm 3 mps 698 mmHg 35%
06:00 +4°C° 0 mm 3 mps 698 mmHg 34%
07:00 +5°C° 0 mm 3 mps 698 mmHg 33%
08:00 +7°C° 0 mm 3 mps 698 mmHg 32%
09:00 +10°C° 0 mm 3 mps 698 mmHg 29%
10:00 +12°C° 0 mm 3 mps 698 mmHg 25%
11:00 +14°C° 0 mm 4 mps 699 mmHg 22%
12:00 +15°C° 0 mm 4 mps 698 mmHg 22%
13:00 +18°C° 0 mm 4 mps 698 mmHg 22%
14:00 +19°C° 0 mm 5 mps 697 mmHg 22%
15:00 +18°C° 0 mm 4 mps 697 mmHg 22%
16:00 +18°C° 0 mm 4 mps 696 mmHg 23%
17:00 +18°C° 0 mm 4 mps 696 mmHg 23%
18:00 +15°C° 0 mm 4 mps 696 mmHg 28%
19:00 +13°C° 0 mm 3 mps 695 mmHg 33%
20:00 +11°C° 0 mm 3 mps 695 mmHg 38%
21:00 +10°C° 0 mm 3 mps 696 mmHg 40%
22:00 +10°C° 0 mm 2 mps 696 mmHg 42%
23:00 +9°C° 0 mm 2 mps 696 mmHg 44%

17 August, Monday

Time Temperature Precipitation Wind Pressure Humidity
00:00 +8°C° 0 mm 2 mps 696 mmHg 45%
01:00 +9°C° 0 mm 1 mps 696 mmHg 47%
02:00 +8°C° 0 mm 1 mps 696 mmHg 49%
03:00 +8°C° 0 mm 1 mps 696 mmHg 50%
04:00 +8°C° 0 mm 1 mps 696 mmHg 52%
05:00 +7°C° 0 mm 1 mps 695 mmHg 53%
06:00 +7°C° 0 mm 2 mps 696 mmHg 51%
07:00 +8°C° 0 mm 2 mps 696 mmHg 49%
08:00 +9°C° 0 mm 2 mps 697 mmHg 46%
09:00 +11°C° 0 mm 3 mps 697 mmHg 41%
10:00 +14°C° 0 mm 3 mps 697 mmHg 35%
11:00 +17°C° 0 mm 4 mps 698 mmHg 29%
12:00 +18°C° 0 mm 4 mps 697 mmHg 27%
13:00 +19°C° 0 mm 4 mps 696 mmHg 25%
14:00 +20°C° 0 mm 4 mps 696 mmHg 23%
15:00 +20°C° 0 mm 4 mps 695 mmHg 23%
16:00 +19°C° 0 mm 3 mps 695 mmHg 23%
17:00 +19°C° 0 mm 3 mps 695 mmHg 24%
18:00 +17°C° 0 mm 2 mps 694 mmHg 28%
19:00 +15°C° 0 mm 2 mps 694 mmHg 33%
20:00 +13°C° 0 mm 2 mps 694 mmHg 37%
21:00 +12°C° 0 mm 2 mps 694 mmHg 39%
22:00 +11°C° 0 mm 1 mps 694 mmHg 41%
23:00 +11°C° 0 mm 1 mps 695 mmHg 42%

18 August, Tuesday

Time Temperature Precipitation Wind Pressure Humidity
00:00 +9°C° 0 mm 2 mps 695 mmHg 43%
01:00 +9°C° 0 mm 2 mps 695 mmHg 43%
02:00 +8°C° 0 mm 3 mps 695 mmHg 44%
03:00 +8°C° 0 mm 3 mps 695 mmHg 45%
04:00 +7°C° 0 mm 3 mps 695 mmHg 46%
05:00 +7°C° 0 mm 3 mps 695 mmHg 47%
06:00 +6°C° 0 mm 4 mps 695 mmHg 45%
07:00 +7°C° 0 mm 5 mps 696 mmHg 43%
08:00 +7°C° 0 mm 6 mps 696 mmHg 41%
09:00 +8°C° 0 mm 7 mps 696 mmHg 37%
10:00 +10°C° 0 mm 7 mps 697 mmHg 34%
11:00 +11°C° 0 mm 8 mps 697 mmHg 30%
12:00 +12°C° 0 mm 8 mps 696 mmHg 29%
13:00 +12°C° 0 mm 8 mps 696 mmHg 27%
14:00 +14°C° 0 mm 7 mps 695 mmHg 26%
15:00 +14°C° 0 mm 7 mps 695 mmHg 27%
16:00 +12°C° 0 mm 7 mps 694 mmHg 27%
17:00 +11°C° 0 mm 7 mps 694 mmHg 27%
18:00 +10°C° 0 mm 7 mps 694 mmHg 27%
19:00 +9°C° 0 mm 7 mps 694 mmHg 27%
20:00 +8°C° 0 mm 7 mps 695 mmHg 27%
21:00 +8°C° 0 mm 7 mps 695 mmHg 27%
22:00 +8°C° 0 mm 6 mps 696 mmHg 27%
23:00 +7°C° 0 mm 6 mps 697 mmHg 27%
Show more